sat.trackr.live / text

‹ back to catalog

STARLINK-31224

NORAD 59029 · 2024-038G

PAYLOAD ACTIVE UNKNOWN

§ Identity

Operator
Country
US
Launch date
2024-02-25
Launch site
AFETR
Launch vehicle
Mass (kg)
RCS (m²)

Purposes: comms

External: N2YO · Heavens-Above · Gunter

§ Orbital elements

Epoch: 2026-09-20T13:28:43.226688Z

Period
94.27 min
Inclination
43.0026°
Eccentricity
0.0001393
Mean motion
15.27582940 rev/d
Perigee alt
482.1 km
Apogee alt
484.0 km
Semi-major
6,861.2 km
B*
3.8940e-5
RAAN
6.2787°
Arg perigee
267.9948°
Mean anomaly
92.0744°
Rev number
14,456

§ Raw data

STARLINK-312241 59029U 24038G   26263.56161142  .00000810  00000+0  38940-4 0  99932 59029  43.0026   6.2787 0001393 267.9948  92.0744 15.27582940144562

JSON: /api/v1/satellites/59029 · /tle

For live sub-satellite position, see the globe view (requires WebGL).

§ Visibility from observer

Set your observer location to see the next 7 days of passes ≥ 10°. The values pass through the URL so the page stays shareable.

No JS? Fill the form by hand. The geolocation button needs JavaScript.